Tracking 30107 objects as of 18-Jan-2025
HD Live streaming from Space Station
objects crossing your sky now

SL-8 R/B

Track SL-8 R/B now!
10-day predictions


NORAD ID: 12792
Int'l Code: 1981-084B
Perigee: 759.6 km
Apogee: 780.6 km
Inclination: 74.0 °
Period: 100.1 minutes
Semi major axis: 7141 km
RCS: 5.0997 m2 (large)
Launch date: August 28, 1981
Source: Commonwealth of Independent States (former USSR) (CIS)
Launch site: PLESETSK MISSILE AND SPACE COMPLEX (PKMTR)

Note: This is a ROCKET BODY
Your satellite tracking list
Your tracking list is empty




NASA's NSSDC Master Catalog

Two Line Element Set (TLE):
1 12792U 81084B   25017.90245593  .00000601  00000-0  20453-3 0  9998
2 12792  74.0312 330.8342 0014738 300.1893  59.7801 14.38650839273076
Source of the keplerian elements: AFSPC